Location: *
(53.4003°S, 165.3236°W)
Time: 01:31:09
(UTC+00:00)

Cosmos 1680 Rocket - Pass Details

Date: 11 December 2023
Orbit: 758 x 779 km, 74.1° (Epoch: 24 February)

Event Time Altitude Azimuth Distance (km) Brightness Sun altitude
Rises 12:17:21 0° 210° (SSW) 3,304 7.4 -11.5°
Reaches altitude 10° 12:19:52 10° 217° (SW) 2,371 6.5 -11.4°
Maximum altitude 12:24:52 40° 285° (WNW) 1,156 4.2 -11.1°
Enters shadow 12:29:04 14° 349° (N) 2,081 5.1 -10.9°
